Regional Weather Roundup
Issued by NWS

Home | Current Version | Previous Version | Graphics & Text | Print | Product List | Glossary On
Versions: 1 2 3 4 5 6 7 8 9 10 11 12 13 14 15 16 17 18 19 20 21 22 23 24 25 26 27 28 29 30 31 32 33 34 35 36 37 38 39 40 41 42 43 44 45 46 47 48 49 50
000
ASUS43 KLMK 280010
RWRKY
KENTUCKY REGIONAL WEATHER ROUNDUP
NATIONAL WEATHER SERVICE LOUISVILLE KY
700 PM EST TUE JAN 27 2015

NOTE "FAIR" INDICATES FEW OR NO CLOUDS BELOW 12,000 FEET
WITH NO SIGNIFICANT WEATHER AND/OR OBSTRUCTIONS TO VISIBILITY.

KYZ001>023-026-027-061>063-070>075-280100-
WESTERN AND SOUTH CENTRAL KENTUCKY

CITY           SKY/WX    TMP DP  RH WIND       PRES   REMARKS
PADUCAH        MOCLDY    39  27  62 N6        30.20R WCI  35
HENDERSON      CLOUDY    34  28  80 N8        30.22R WCI  27
OWENSBORO      CLOUDY    34  30  85 VRB6      30.22R WCI  29
HOPKINSVILLE   CLOUDY    37  28  72 N7        30.19R WCI  31
BOWLING GREEN  CLOUDY    34  30  85 N5        30.19R WCI  30
GLASGOW        CLOUDY    32  29  86 N6        30.18R WCI  27
$$

KYZ024-025-028>034-038-045-046-053-280100-
NORTH CENTRAL KENTUCKY

CITY           SKY/WX    TMP DP  RH WIND       PRES   REMARKS
LOUISVILLE/SDF MOCLDY    32  19  58 NW8       30.18R WCI  25
LOUISVILLE/LOU CLOUDY    32  17  54 N9        30.19R WCI  24
FORT KNOX      CLOUDY    31  24  73 NW6       30.16S WCI  26
$$

KYZ035>037-039>044-047>052-055>060-089>105-280100-
NORTHEAST KENTUCKY

CITY           SKY/WX    TMP DP  RH WIND       PRES   REMARKS
LEXINGTON      CLEAR     27  12  53 N6        30.15R WCI  20
COVINGTON      CLEAR     24  14  65 N7        30.17R WCI  16
FRANKFORT      CLEAR     27  12  53 NW3       30.15R
$$

KYZ054-064>069-076>088-106>120-280100-
SOUTHEAST KENTUCKY

CITY           SKY/WX    TMP DP  RH WIND       PRES   REMARKS
JACKSON        CLEAR     27  10  49 VRB6      30.10R WCI  20
LONDON         MOCLDY    30  20  66 NW5       30.12R WCI  25
SOMERSET       CLOUDY    32  23  69 NW5       30.16R WCI  27
MIDDLESBORO    CLOUDY    32  24  74 N3        30.11R
MONTICELLO     CLOUDY    32  28  85 VRB7      30.18R WCI  26
$$




USA.gov is the U.S. government's official web portal to all federal, state and local government web resources and services.